Torna al catalogo

STARLINK-3048

AttivoComunicazioniVLEO
NORAD 49148·PAYLOAD·🇺🇸 United States

Lanciato Sep 14, 2021 da Vandenberg Space Force Base

Loading…

Prossimi Passaggi (prossime 24 ore)

TLE

AggiornatoSource: CelesTrak SupGP

Epoca: Sep 14, 2026, 20:55 UTC

1 49148C 21082U   26257.87201389 -.00044477  00000+0 -38058-2 0  2579
2 49148  70.0014 158.8326 0002678 269.7176 315.7139 14.97547775    10

Traccia STARLINK-3048 in tempo reale con AllMySat

Download on the App Store